Regional Weather Roundup
Issued by NWS Green Bay, WI

Home | Current Version | Previous Version | Text Only | Print | Product List | Glossary On
Versions: 1 2 3 4 5 6 7 8 9 10 11 12 13 14 15 16 17 18 19 20 21 22 23 24 25 26 27 28 29 30 31 32 33 34 35 36 37 38 39 40 41 42 43 44 45 46 47 48 49 50
000
ASUS43 KGRB 111859
RWRGRB

NORTH-CENTRAL AND NORTHEAST WISCONSIN REGIONAL WEATHER ROUNDUP
NATIONAL WEATHER SERVICE GREEN BAY WI
200 PM CDT FRI JUL 11 2014

WIZ005-009-010>012-018-019-112000-
NORTH CENTRAL WISCONSIN

CITY           SKY/WX    TMP DP  RH WIND       PRES   REMARKS
IRONWOOD       NOT AVBL
MANITOWISH WTR NOT AVBL
ARBOR VITAE    NOT AVBL
EAGLE RIVER    NOT AVBL
LAND O LAKES   NOT AVBL
RHINELANDER    PTSUNNY   74  58  57 SW16G30   30.06F
PHILLIPS       CLOUDY    72  61  68 SW16G28   30.03F
ANTIGO         NOT AVBL
TOMAHAWK       NOT AVBL
MERRILL        NOT AVBL
$$

WIZ013-073-112000-
NORTHEAST WISCONSIN

CITY           SKY/WX    TMP DP  RH WIND       PRES   REMARKS
IRON MOUNTAIN  CLOUDY    75  60  59 S17       30.06F
MARINETTE      CLOUDY    75  61  60 SW12G17   30.08F
$$

WIZ017-030-035>037-045-112000-
CENTRAL WISCONSIN

CITY           SKY/WX    TMP DP  RH WIND       PRES   REMARKS
MEDFORD        NOT AVBL
WAUSAU         PTSUNNY   76  56  49 SW17G29   30.06F
MOSINEE        MOSUNNY   73  57  56 S18G24    30.09F
MARSHFIELD     PTSUNNY   73  60  63 S14       30.06F
WISC RAPIDS    CLOUDY    75  54  47 S14G26    30.08F
STEVENS POINT  NOT AVBL
WAUPACA        PTSUNNY   80  54  40 S12G21    30.11F
SHAWANO        CLOUDY    77  58  50 SW10G16   30.11S
CLINTONVILLE   CLOUDY    79  59  50 SW16      30.10F
$$

WIZ038-039-048-051-112000-
FOX VALLEY

CITY           SKY/WX    TMP DP  RH WIND       PRES   REMARKS
NWS GREEN BAY  CLOUDY    78  57  48 SW15G21   30.11F
APPLETON       PTSUNNY   77  55  47 SW20G25   30.13F
OSHKOSH        CLOUDY    78  57  48 SW16G25   30.12F
FOND DU LAC    CLOUDY    75  57  53 SW12G24   30.13F
$$

WIZ022-050-052-112000-
EAST CENTRAL WISCONSIN

CITY           SKY/WX    TMP DP  RH WIND       PRES   REMARKS
STURGEON BAY   CLOUDY    73  61  64 S9        30.12F
MANITOWOC      NOT AVBL
SHEBOYGAN      CLOUDY    76  58  53 S12G18    30.14F
$$

LMZ563-521-522-541>543-112000-
LAKESHORE

STATION/POSITION TIME  TEMP    WIND        PRES    VSBY  WAVE
                       AIR SEA DIR/SP/G                  HT/PER
                 (UTC) (F)     (DEG/KT/KT) (MB)    (MI)  (FT/S)
SHEBOYGAN LKSHOR 1800   64     180/ 20/ 21 1021.2F
KEWAUNEE LKSHORE 1800   55     180/ 12/ 14 1021.4S
NORTHPORT PIER   1800   67     170/  7/ 10 1020.3S
N MID LAKE BUOY  1800   59 53  210/ 17/ 21 1020.0R         3/ 4
MENOMINEE LKSHOR 1800   75     190/ 10/ 15 1019.9F
$$


USA.gov is the U.S. government's official web portal to all federal, state and local government web resources and services.